Regional Weather Roundup
Issued by NWS Grand Forks, ND

Home | Current Version | Previous Version | Text Only | Print | Product List | Glossary On
Versions: 1 2 3 4 5 6 7 8 9 10 11 12 13 14 15 16 17 18 19 20 21 22 23 24 25 26 27 28 29 30 31 32 33 34 35 36 37 38 39 40 41 42 43 44 45 46 47 48 49 50
000
ASUS43 KFGF 231631
RWRFGF
PRAIRIE TO PINES  WEATHER ROUNDUP
NATIONAL WEATHER SERVICE EASTERN NORTH DAKOTA/GRAND FORKS ND
1100 AM CDT FRI JUN 23 2017

 **SATELLITE DATA USED TO AUGMENT SKY COVER AT AUTOMATED STATIONS**
 *****  WEATHER ACROSS EASTERN NORTH DAKOTA  *****

CITY           SKY/WX    TMP DP  RH WIND       PRES   REMARKS
GRAND FORKS    CLOUDY    60  50  69 NW22G29   29.87R
GRAND FRKS AFB CLOUDY    59  48  67 N18G28    29.88R
DEVILS LAKE    CLOUDY    57  44  62 NW22G29   29.93R
FARGO          CLOUDY    62  50  64 NW18      29.89R
WAHPETON ARPT  CLOUDY    61  46  59 NW22G29   29.90R
$$

 ***** WEATHER ACROSS CENTRAL AND WESTERN NORTH DAKOTA  *****

CITY           SKY/WX    TMP DP  RH WIND       PRES   REMARKS
BISMARCK       FAIR      60  35  39 NW23G39   30.06F
MINOT          PTSUNNY   58  38  47 W25G35    30.02S
JAMESTOWN      CLOUDY    59  45  59 NW23G30   29.96R
MINOT AFB      PTSUNNY   59  39  47 NW26      30.01R
GARRISON         N/A     54  39  57 NW24G33   30.05F
WILLISTON      PTSUNNY   60  37  42 NW20G33   30.13F
DICKINSON      FAIR      55  30  38 NW28G36   30.12F
HETTINGER      FAIR      59  31  34 NW31G41   30.15F
$$

 *****  OTHER AIRPORT OBSERVATIONS IN OUR AREA  *****

CITY           SKY/WX    TMP DP  RH WIND       PRES   REMARKS
WALHALLA       NOT AVBL
GRAFTON AIRPOR CLOUDY    57  50  77 NW21      29.89R
VALLEY CITY AR CLOUDY    57  48  72 NW20G29   29.96R
CANDO          NOT AVBL
CAVALIER APRT  CLOUDY    59  48  67 NW20G28   29.86R
GWINNER        CLOUDY    61  48  63 NW21G26   29.95R
SHEYENNE NWR     N/A     62  50  63 NW16      29.95S
ROLLA            N/A     57  39  51 NW29G36   29.94R
 ***** THE ABOVE OBSERVATIONS ARE NON NWS ARE NOT QUALITY
       CONTROLLED AND MAY MIS-REPORT RAIN FOR SNOW...
$$

  *****  WEATHER ACROSS NORTHERN MINNESOTA  *****

CITY           SKY/WX    TMP DP  RH WIND       PRES   REMARKS
FLAG ISLAND    PTSUNNY   63  52  67 NW15      29.71R
WARROAD        LGT RAIN  59  55  88 NW13G24   29.76R
ROSEAU           N/A     59  54  82 NW16G22   29.78R
HALLOCK        PTSUNNY   61  52  72 NW23G31   29.83R
THF RVR FALLS  CLOUDY    59  50  72 NW22G29   29.83
BAUDETTE       PTSUNNY   60  52  74 NW14      29.72R
WASKISH        CLOUDY    61  54  77 W10G18    29.75R
CROOKSTON      CLOUDY    61  52  72 NW20      29.85R
STEPHEN NDAWN    N/A     59  48  67 NW20        N/A
GREENBUSH NDAW   N/A     57  52  82 NW17        N/A
$$
  *****  WEATHER ACROSS CENTRAL AND WEST MINNESOTA  *****

CITY           SKY/WX    TMP DP  RH WIND       PRES   REMARKS
FOSSTON        CLOUDY    59  52  77 NW17G24   29.83R
BEMIDJI        CLOUDY    58  54  84 NW14      29.79R
PARK RAPIDS    CLOUDY    64  48  56 NW16G22   29.80R
ELBOW LAKE     LGT RAIN  58  55  89 W16G23    29.89R
WADENA         PTSUNNY   63  52  67 NW16G23   29.82R
DETROIT LAKES  LGT RAIN  57  54  88 NW17G26   29.87R
MOORHEAD       CLOUDY    61  50  67 NW20G25   29.89R
FERGUS FALLS   CLOUDY    59  54  82 NW20G28   29.86R
MORRIS MN      FAIR      64  54  68 NW26      29.87S
STAPLES        CLOUDY    64  48  55 NW10      29.81R
$$
  *****  WEATHER ELSEWHERE ACROSS MINNESOTA  *****

CITY           SKY/WX    TMP DP  RH WIND       PRES   REMARKS
DULUTH         PTSUNNY   62  49  62 NW13G24   29.69S
INTRNTL FALLS  PTSUNNY   64  51  62 NW14G24   29.69R
ELY            PTSUNNY   57  48  72 NW9G20    29.67R
CLOQUET        PTSUNNY   64  46  52 NW14G23   29.72R
WHEATON        PTSUNNY   63  48  59 W23G33    29.91S
BRAINERD       CLOUDY    63  49  60 NW10      29.79S
HIBBING        PTSUNNY   59  46  62 NW15G21   29.71R
ALEXANDRIA     CLOUDY    64  55  72 W15       29.87R
SAINT CLOUD    PTSUNNY   67  53  61 NW13G24   29.80R
MINNEAPOLIS    CLOUDY    66  52  60 NW15      29.79F
$$

  *****  WEATHER ACROSS SOUTH DAKOTA  *****

CITY           SKY/WX    TMP DP  RH WIND       PRES   REMARKS
SIOUX FALLS    CLOUDY    62  52  69 NW18G25   29.99R
BROOKINGS      CLOUDY    59  50  72 NW22G31   29.97R
WATERTOWN      CLOUDY    59  49  69 NW25G32   29.97R
HURON          PTSUNNY   63  50  62 NW25      30.01R
SISSETON         N/A     63  50  62 NW23G33   29.91R
ABERDEEN       CLOUDY    60  47  61 NW23G30   30.00R
MITCHELL       CLOUDY    64  48  56 NW24G30   30.03R
PIERRE         PTSUNNY   63  43  48 NW24G33   30.09F
MOBRIDGE       PTSUNNY   63  37  38 NW25G33   30.05R
RAPID CITY     PTSUNNY   58  38  47 NW24G30   30.20S
$$

  *****  SOME WEATHER IN NEARBY STATES *****

CITY           SKY/WX    TMP DP  RH WIND       PRES   REMARKS
GLASGOW MT     FAIR      60  35  39 NW18G26   30.22S
GREAT FALLS MT FAIR      57  36  45 CALM      30.31F
CHEYENNE WY    CLOUDY    52  37  56 VRB5      30.31F
SCOTTSBLUFF NE FAIR      63  36  36 NW20G26   30.24F
OMAHA NE       PTSUNNY   69  50  50 NW24G30   29.99R
DES MOINES IA  PTSUNNY   76  52  43 NW20G32   29.87R
DAVENPORT IA   FAIR      74  64  71 NW10      29.78S
CHICAGO IL     PTSUNNY   73  59  61 NW12      29.69F
EAU CLAIRE WI  FAIR      68  52  56 NW13      29.74R
LA CROSSE WI   FAIR      74  58  57 W12       29.73F
$$

  *****  SOME NATIONAL WEATHER *****

CITY           SKY/WX    TMP DP  RH WIND       PRES   REMARKS
LA GUARDIA NY  CLOUDY    84  73  69 S13G24    29.75F HX  90
RALEIGH NC     PTSUNNY   84  76  76 SW17G24   29.97F HX  93
ATLANTA GA     PTSUNNY   81  70  69 SW14G22   30.02F
NEW ORLEANS LA PTSUNNY   85  77  77 S16       29.94S HX  95
OKLAHOMA CITY  FAIR      87  69  54 N12       29.85R HX  91
ALBUQUERQUE NM FAIR      80  35  19 N9        30.10S
SALT LAKE CITY FAIR      74  38  27 VRB3      30.17S
LOS ANGELES CA CLOUDY    66  62  87 VRB3      29.91S FOG
BOISE ID       FAIR      63  36  36 NW5       30.21S
SEATTLE WA     FAIR      66  50  56 N10       30.23F
$$

*** WEATHER ACROSS MANITOBA...SASKATCHEWAN AND ONTARIO ***
                ***ONTARIO***

CITY           SKY/WX    TMP DP  RH WIND       PRES   REMARKS
GERALDTON      PTSUNNY   63  48  59 NW9       29.54R
THUNDER BAY    PTSUNNY   64  50  59 N10       29.57R
SIOUX LOOKOUT  PTSUNNY   59  52  77 NW10G17   29.62R
TORONTO        CLOUDY    68  66  94 S7        29.56F
BIG TROUT LK   PTSUNNY   63  48  59 SW7       29.63R
PICKLE LAKE    PTSUNNY   63  48  59 N3        29.58R
DRYDEN         MOSUNNY   61  50  67 W10       29.64R
KENORA         PTSUNNY   61  50  67 NW9G18    29.70S
$$
                *** MANITOBA***

CITY           SKY/WX    TMP DP  RH WIND       PRES   REMARKS
BRANDON        PTSUNNY   55  41  58 NW23G35   29.92S
DAUPHIN        CLOUDY    54  41  62 NW20G25   29.90R
ISLAND LAKE    CLOUDY    55  50  82 N14       29.73R
PILOT MOUND      N/A     54  43  66 NW21G29     N/A
THE PAS        CLOUDY    48  45  87 NW15G22   29.89R
THOMPSON       CLOUDY    48  41  76 NE14G20   29.88R
WINNIPEG       CLOUDY    55  52  88 NW21G30   29.82R
LYNN LAKE      PTSUNNY   50  37  62 NE17G23   29.99R
CHURCHILL      MOSUNNY   45  37  76 N12       29.96R
GILLAM         CLOUDY    46  41  81 NE16G25   29.87R
$$
                ***SASKATCHEWAN***

CITY           SKY/WX    TMP DP  RH WIND       PRES   REMARKS
ESTEVAN        PTSUNNY   52  41  66 NW23G32   30.07S
KINDERSLEY     MOSUNNY   55  41  58 NW9       30.19F
LLOYDMINSTER   PTSUNNY   59  43  55 NW9       30.16F
PRINCE ALBERT  CLOUDY    50  37  62 N21G28    30.09R
REGINA         PTSUNNY   54  36  50 NW32G41   30.11S
YORKTON        CLOUDY    50  39  66 NW21G31   29.99S
N. BATTLEFORD  SUNNY     57  37  47 NW16G22   30.17F
LA RONGE       LGT RAIN  46  45  93 N7        30.08R
SASKATOON      MOSUNNY   57  37  47 NW23G29   30.14F
SWIFT CURRENT  SUNNY     52  41  66 NW16      30.19F
$$
NOTE: THESE ARE AUTOMATED STATIONS WITH LIMITED QUALITY CONTROL
      "FAIR" INDICATES FEW OR NO CLOUDS BELOW 12,000 FEET WITH NO
      SIGNIFICANT WEATHER AND/OR OBSTRUCTIONS TO VISIBILITY.
      SKY/WX - SKY CONDITION AND SIGNIFICANT WEATHER.
      TMP - AIR TEMPERATURE.    DP   - DEWPOINT TEMPERATURE.
      RH  - RELATIVE HUMIDITY.  PRES - PRESSURE.
      HX  - HEAT INDEX.         WCI  - WIND CHILL INDEX.
$




USA.gov is the U.S. government's official web portal to all federal, state and local government web resources and services.